This is the latest recevied weather packets stored in our database for station/object SP8PUB-10. If no packets are shown the sender has not sent any weather packets the latest 10 day(s).
| Time | Temp. | Humidity | Pressure | Rain* | Wind** | Luminosity | Snow |
|---|---|---|---|---|---|---|---|
| 1777775285 | 5.56° C | 95% | 1021.4 hPa | - | - | - | - |
| 1777774385 | 5.56° C | 94% | 1021.5 hPa | - | - | - | - |
| 1777773485 | 6.11° C | 93% | 1021.4 hPa | - | - | - | - |
| 1777772585 | 6.11° C | 90% | 1021.5 hPa | - | - | - | - |
| 1777771685 | 6.67° C | 90% | 1021.5 hPa | - | - | - | - |
| 1777770785 | 6.67° C | 89% | 1021.5 hPa | - | - | - | - |
| 1777769885 | 6.67° C | 88% | 1021.6 hPa | - | - | - | - |
| 1777768985 | 7.22° C | 86% | 1021.5 hPa | - | - | - | - |
| 1777768085 | 7.22° C | 85% | 1021.5 hPa | - | - | - | - |
| 1777767183 | 7.22° C | 82% | 1021.6 hPa | - | - | - | - |
| 1777766283 | 7.78° C | 81% | 1021.6 hPa | - | - | - | - |
| 1777765383 | 8.33° C | 78% | 1021.7 hPa | - | - | - | - |
| 1777764483 | 8.89° C | 74% | 1021.7 hPa | - | - | - | - |
| 1777763583 | 9.44° C | 70% | 1021.6 hPa | - | - | - | - |
| 1777762683 | 10° C | 69% | 1021.6 hPa | - | - | - | - |
| 1777761322 | 10.56° C | 68% | 1021.8 hPa | - | - | - | - |
| 1777759527 | 10.56° C | 66% | 1022.1 hPa | - | - | - | - |
| 1777758626 | 10.56° C | 66% | 1022.1 hPa | - | - | - | - |
| 1777757726 | 10.56° C | 67% | 1022.2 hPa | - | - | - | - |
| 1777756826 | 11.11° C | 67% | 1022.3 hPa | - | - | - | - |
| 1777755926 | 11.11° C | 67% | 1022.3 hPa | - | - | - | - |
| 1777755026 | 11.67° C | 65% | 1022.4 hPa | - | - | - | - |
| 1777754126 | 12.22° C | 64% | 1022.4 hPa | - | - | - | - |
| 1777753226 | 12.22° C | 62% | 1022.4 hPa | - | - | - | - |
| 1777752326 | 12.78° C | 62% | 1022.4 hPa | - | - | - | - |
* Rain since midnight (hover to see other rain measurements)
** Current wind speed in m/s (hover to see current wind gust speed)